Location: Chefe Valiua
(16.5342°S, 37.2214°E)
Time: 01:24:17
(UTC+00:00)

Intelsat 5-2 Rocket - Pass Details

Date: 19 January 2021
Orbit: 348 x 10118 km, 23.6° (Epoch: 07 March)

Event Time Altitude Azimuth Distance (km) Brightness Sun altitude
Rises 17:40:10 0° 256° (WSW) 7,994 10.1 -20.2°
Reaches altitude 10° 17:47:52 10° 253° (WSW) 5,302 8.9 -21.8°
Maximum altitude 17:59:22 59° 175° (S) 1,080 4.3 -24.2°
Enters shadow 18:00:43 44° 120° (ESE) 1,098 4.0 -24.4°
